Weather in Turtkul

Uzbekistan     41°33′29″N   60°59′28″E
temp.,
°C
wind,
m/s
gust,
m/s
humid.,
%
clouds,
%
prec.,
mm/h
press.,
hPa
HPBL,
m
28 november, sun
sun2823:00+2ene4533100 0.0 102673
02:00+1ene443977 0.0 102544
05:00+1ene334946 0.0 102526
08:00+1ene33545 0.0 102524
11:00+6e23395 0.0 1025238
14:00+10ese22310 0.0 1023502
17:00+9e12350 0.0 102210
20:00+6e33420 0.0 102329
29 november, mon
mon2923:00+5e33460 0.0 102222
02:00+4e33475 0.0 102214
05:00+4e3348100 0.0 102216
08:00+4ene3351100 0.0 102324
11:00+9ese3538100 0.0 1023215
14:00+13ese3332100 0.0 1021453
17:00+12ene33375 0.0 102227
20:00+7ene464641 0.0 102374
30 november, tue
tue3023:00+6ene44480 0.0 102343
02:00+6ene34510 0.0 102235
05:00+5ene44530 0.0 102339
08:00+5ene44540 0.0 102343
11:00+11e34380 0.0 1023233
14:00+16ese44300 0.0 1020545
17:00+14ese44350 0.0 101942
20:00+10e45460 0.0 101959
1 december, wed
wed123:00+9ese46490 0.0 101879
02:00+9se59501 0.0 1015112
05:00+8se5104683 0.0 1014131
08:00+8se5114991 0.0 1012154
11:00+14se81436100 0.0 1011374
14:00+19sse81327100 0.0 1007509
17:00+18se51129100 0.0 1006186
20:00+16sse51032100 0.0 1005143
2 december, thu
thu223:00+15s463599 0.0 100567
02:00+13ssw45385 0.0 100544
05:00+12sw34401 0.0 100623
08:00+11sw33448 0.0 100711
11:00+16w343934 0.0 1010225
14:00+17nw5542100 0.0 1009356
17:00+15n464083 0.0 1011126
20:00+12n465999 0.0 1013166